Home   Weather   Barysaw   Past weeks

Flag for Belarus Past Weather in Barysaw, Belarus — Yesterday and Last 2 Weeks

36 °F

Partly sunny.

Feels Like: 26 °F
Forecast: 29 / 40 °F
Wind: 15 mph from Southeast

Location: Minsk

Current Time: Oct 21, 2016 at 5:58:29 PM

Latest Report: Oct 21, 2016 at 5:30 PM

Visibility: N/A

Pressure: 30.36 "Hg

Humidity: 70%

Dew Point: 27 °F

Location of BarysawLocation

Past Weather in Barysaw — Graph


Barysaw Temperature Yesterday

Maximum temperature yesterday: 43 °F (at 2:00 PM)
Minimum temperature yesterday: 27 °F (at 10:00 PM)
Average temperature yesterday: 34 °F

High & Low Weather Summary for the Past Weeks

High50 °F (Oct 6, 5:30 PM)100% (Oct 6, 10:30 PM)30.74 "Hg (Oct 6, 10:30 PM)
Low23 °F (Oct 17, 4:30 AM)53% (Oct 16, 3:30 PM)29.95 "Hg (Oct 7, 10:30 AM)
Average37 °F87%30.32 "Hg
* Reported Oct 6 4:00 PM — Oct 21 4:30 PM, Barysaw, Weather by CustomWeather, © 2016

Note: Actual official high and low records may vary slightly from our data, if they occured in-between our weather recording intervals... More about our weather records


Barysaw Weather History for the Previous 24 Hours

Scroll right to see more
Time TempWeatherWind HumidityBarometerVisibility
4:30 PM
Fri, Oct 21
36 °FPartly sunny.17 mph75%30.36 "HgN/A
4:00 PM37 °FPartly sunny.17 mph65%30.36 "HgN/A
3:30 PM37 °FPartly sunny.20 mph70%30.36 "HgN/A
3:00 PM37 °FPartly sunny.20 mph70%30.39 "HgN/A
2:30 PM37 °FPartly sunny.17 mph70%30.39 "HgN/A
2:00 PM37 °FPartly sunny.17 mph70%30.39 "HgN/A
1:30 PM37 °FPartly sunny.20 mph70%30.39 "HgN/A
1:00 PM36 °FPartly sunny.15 mph75%30.39 "HgN/A
12:30 PM37 °FPartly sunny.15 mph70%30.39 "HgN/A
12:00 PM36 °FPartly sunny.17 mph75%30.39 "HgN/A
11:30 AM36 °FPartly sunny.15 mph75%30.39 "HgN/A
11:00 AM36 °FPartly sunny.15 mph75%30.39 "HgN/A
10:30 AM34 °FPartly sunny.15 mph81%30.39 "HgN/A
10:00 AM34 °FPartly sunny.15 mph81%30.39 "HgN/A
9:30 AM32 °FPartly sunny.15 mph87%30.39 "HgN/A
9:00 AM32 °FPartly sunny.15 mph87%30.39 "HgN/A
8:30 AM30 °FPartly cloudy.10 mph93%30.39 "HgN/A
8:00 AM30 °FClear.10 mph93%30.36 "Hg10 mi
7:30 AM30 °FClear.10 mph93%30.36 "Hg10 mi
7:00 AM30 °FClear.10 mph93%30.36 "Hg10 mi
6:30 AM30 °FClear.10 mph93%30.36 "Hg10 mi
6:00 AM30 °FClear.10 mph93%30.39 "Hg10 mi
5:30 AM30 °FClear.8 mph93%30.39 "Hg10 mi
5:00 AM28 °FClear.6 mph93%30.39 "Hg10 mi
4:30 AM28 °FClear.6 mph93%30.39 "Hg10 mi
4:00 AM28 °FClear.6 mph93%30.39 "Hg10 mi
3:30 AM28 °FClear.6 mph93%30.39 "Hg10 mi
3:00 AM28 °FClear.6 mph93%30.42 "Hg10 mi
2:30 AM30 °FClear.6 mph86%30.39 "Hg10 mi
2:00 AM30 °FClear.8 mph86%30.42 "Hg10 mi
1:30 AM30 °FClear.8 mph86%30.42 "Hg10 mi
1:00 AM30 °FClear.8 mph86%30.42 "Hg10 mi
12:30 AM32 °FClear.8 mph80%30.42 "Hg10 mi
12:00 AM32 °FClear.6 mph87%30.42 "Hg10 mi
11:30 PM
Thu, Oct 20
28 °FClear.6 mph86%30.42 "Hg10 mi
11:00 PM28 °FClear.6 mph86%30.42 "Hg10 mi
10:30 PM28 °FClear.6 mph86%30.42 "Hg10 mi
10:00 PM27 °FClear.6 mph93%30.42 "Hg10 mi
9:30 PM28 °FClear.6 mph86%30.42 "Hg10 mi
9:00 PM28 °FClear.6 mph86%30.42 "Hg10 mi
8:30 PM30 °FClear.6 mph86%30.42 "Hg10 mi
8:00 PM32 °FClear.8 mph80%30.39 "Hg10 mi
7:30 PM32 °FClear.6 mph80%30.42 "Hg10 mi
7:00 PM34 °FClear.10 mph81%30.39 "Hg10 mi
6:30 PM36 °FSunny.10 mph75%30.39 "Hg10 mi
6:00 PM36 °FSunny.10 mph75%30.39 "Hg10 mi
5:30 PM37 °FSunny.15 mph70%30.39 "Hg10 mi
5:00 PM39 °FSunny.15 mph65%30.39 "Hg10 mi
Weather by CustomWeather, © 2016

See weather overviewHow to use our weather pages